Time,TemperatureF,DewpointF,PressureIn,WindDirection,WindDirectionDegrees,WindSpeedMPH,WindSpeedGustMPH,Humidity,HourlyPrecipIn,Conditions,Clouds,dailyrainin,SoftwareType,DateUTC
2013-06-15 00:02:00,72.0,-99.9,-100.00,NNW,332,7.0,-999.0,0,-99.99,,,-99.99,,2013-06-15 05:02:00,
2013-06-15 00:12:00,72.0,-99.9,-100.00,NW,319,4.0,-999.0,0,-99.99,,,-99.99,,2013-06-15 05:12:00,
2013-06-15 00:22:00,72.0,-99.9,-100.00,NW,319,4.0,-999.0,0,-99.99,,,-99.99,,2013-06-15 05:22:00,
2013-06-15 00:34:00,71.0,-99.9,-100.00,North,0,0.0,-999.0,0,-99.99,,,-99.99,,2013-06-15 05:34:00,
2013-06-15 00:43:00,71.0,-99.9,-100.00,SSE,152,1.0,-999.0,0,-99.99,,,-99.99,,2013-06-15 05:43:00,
2013-06-15 00:52:00,70.0,-99.9,-100.00,ESE,123,6.0,-999.0,0,-99.99,,,-99.99,,2013-06-15 05:52:00,
2013-06-15 01:02:00,70.0,-99.9,-100.00,ESE,115,8.0,-999.0,0,-99.99,,,-99.99,,2013-06-15 06:02:00,
2013-06-15 01:12:00,70.0,-99.9,-100.00,ESE,117,11.0,-999.0,0,-99.99,,,-99.99,,2013-06-15 06:12:00,
2013-06-15 01:24:00,70.0,-99.9,-100.00,ESE,117,11.0,-999.0,0,-99.99,,,-99.99,,2013-06-15 06:24:00,
2013-06-15 01:33:00,71.0,-99.9,-100.00,SSW,200,3.0,-999.0,0,-99.99,,,-99.99,,2013-06-15 06:33:00,
2013-06-15 01:43:00,71.0,-99.9,-100.00,South,182,4.0,-999.0,0,-99.99,,,-99.99,,2013-06-15 06:43:00,
2013-06-15 01:53:00,71.0,-99.9,-100.00,South,184,2.0,-999.0,0,-99.99,,,-99.99,,2013-06-15 06:53:00,
2013-06-15 02:02:00,71.0,-99.9,-100.00,South,169,3.0,-999.0,0,-99.99,,,-99.99,,2013-06-15 07:02:00,
2013-06-15 02:11:00,71.0,-99.9,-100.00,South,174,8.0,-999.0,0,-99.99,,,-99.99,,2013-06-15 07:11:00,
2013-06-15 02:23:00,69.0,-99.9,-100.00,SSE,166,4.0,-999.0,0,-99.99,,,-99.99,,2013-06-15 07:23:00,
2013-06-15 02:33:00,69.0,-99.9,-100.00,SSE,166,4.0,-999.0,0,-99.99,,,-99.99,,2013-06-15 07:33:00,
2013-06-15 02:43:00,69.0,-99.9,-100.00,SSW,192,5.0,-999.0,0,-99.99,,,-99.99,,2013-06-15 07:43:00,
2013-06-15 02:54:00,69.0,-99.9,-100.00,South,175,6.0,-999.0,0,-99.99,,,-99.99,,2013-06-15 07:54:00,
2013-06-15 03:03:00,68.0,-99.9,-100.00,South,169,7.0,-999.0,0,-99.99,,,-99.99,,2013-06-15 08:03:00,
2013-06-15 03:12:00,68.0,-99.9,-100.00,South,169,10.0,-999.0,0,-99.99,,,-99.99,,2013-06-15 08:12:00,
2013-06-15 03:22:00,67.0,-99.9,-100.00,South,171,6.0,-999.0,0,-99.99,,,-99.99,,2013-06-15 08:22:00,
2013-06-15 03:34:00,67.0,-99.9,-100.00,South,176,5.0,-999.0,0,-99.99,,,-99.99,,2013-06-15 08:34:00,
2013-06-15 03:43:00,67.0,-99.9,-100.00,SSE,151,4.0,-999.0,0,-99.99,,,-99.99,,2013-06-15 08:43:00,
2013-06-15 03:53:00,67.0,-99.9,-100.00,SSE,165,7.0,-999.0,0,-99.99,,,-99.99,,2013-06-15 08:53:00,
2013-06-15 04:02:00,66.0,-99.9,-100.00,SSE,163,6.0,-999.0,0,-99.99,,,-99.99,,2013-06-15 09:02:00,
2013-06-15 04:12:00,66.0,-99.9,-100.00,South,177,5.0,-999.0,0,-99.99,,,-99.99,,2013-06-15 09:12:00,
2013-06-15 04:22:00,66.0,-99.9,-100.00,South,177,5.0,-999.0,0,-99.99,,,-99.99,,2013-06-15 09:22:00,
2013-06-15 04:33:00,65.0,-99.9,-100.00,SSE,162,11.0,-999.0,0,-99.99,,,-99.99,,2013-06-15 09:33:00,
2013-06-15 04:43:00,66.0,-99.9,-100.00,South,188,6.0,-999.0,0,-99.99,,,-99.99,,2013-06-15 09:43:00,
2013-06-15 05:02:00,65.0,-99.9,-100.00,SSW,204,5.0,-999.0,0,-99.99,,,-99.99,,2013-06-15 10:02:00,
2013-06-15 05:12:00,65.0,-99.9,-100.00,South,184,2.0,-999.0,0,-99.99,,,-99.99,,2013-06-15 10:12:00,
2013-06-15 05:23:00,65.0,-99.9,-100.00,South,184,2.0,-999.0,0,-99.99,,,-99.99,,2013-06-15 10:23:00,
2013-06-15 05:34:00,65.0,-99.9,-100.00,SW,219,2.0,-999.0,0,-99.99,,,-99.99,,2013-06-15 10:34:00,
2013-06-15 05:44:00,65.0,-99.9,-100.00,North,-999,4.0,-999.0,0,-99.99,,,-99.99,,2013-06-15 10:44:00,
2013-06-15 05:53:00,64.0,-99.9,-100.00,North,-999,4.0,-999.0,0,-99.99,,,-99.99,,2013-06-15 10:53:00,
2013-06-15 06:02:00,64.0,-99.9,-100.00,NNW,335,4.0,-999.0,0,-99.99,,,-99.99,,2013-06-15 11:02:00,
2013-06-15 06:12:00,64.0,-99.9,-100.00,NNW,334,7.0,-999.0,0,-99.99,,,-99.99,,2013-06-15 11:12:00,
2013-06-15 06:22:00,64.0,-99.9,-100.00,NNW,334,7.0,-999.0,0,-99.99,,,-99.99,,2013-06-15 11:22:00,
2013-06-15 06:33:00,64.0,-99.9,-100.00,NNW,338,5.0,-999.0,0,-99.99,,,-99.99,,2013-06-15 11:33:00,
2013-06-15 06:43:00,65.0,-99.9,-100.00,NNW,330,5.0,-999.0,0,-99.99,,,-99.99,,2013-06-15 11:43:00,
2013-06-15 06:53:00,65.0,-99.9,-100.00,North,-999,14.0,-999.0,0,-99.99,,,-99.99,,2013-06-15 11:53:00,
2013-06-15 07:02:00,66.0,-99.9,-100.00,East,95,8.0,-999.0,0,-99.99,,,-99.99,,2013-06-15 12:02:00,
2013-06-15 07:12:00,66.0,-99.9,-100.00,South,176,9.0,-999.0,0,-99.99,,,-99.99,,2013-06-15 12:12:00,
2013-06-15 07:23:00,67.0,-99.9,-100.00,NNE,22,5.0,-999.0,0,-99.99,,,-99.99,,2013-06-15 12:23:00,
2013-06-15 07:33:00,67.0,-99.9,-100.00,NNE,14,5.0,-999.0,0,-99.99,,,-99.99,,2013-06-15 12:33:00,
2013-06-15 07:44:00,68.0,-99.9,-100.00,WNW,301,8.0,-999.0,0,-99.99,,,-99.99,,2013-06-15 12:44:00,
2013-06-15 07:53:00,69.0,-99.9,-100.00,West,259,13.0,-999.0,0,-99.99,,,-99.99,,2013-06-15 12:53:00,
2013-06-15 08:02:00,69.0,-99.9,-100.00,North,9,12.0,-999.0,0,-99.99,,,-99.99,,2013-06-15 13:02:00,
2013-06-15 08:12:00,70.0,-99.9,-100.00,West,259,9.0,-999.0,0,-99.99,,,-99.99,,2013-06-15 13:12:00,
2013-06-15 08:22:00,70.0,-99.9,-100.00,West,259,9.0,-999.0,0,-99.99,,,-99.99,,2013-06-15 13:22:00,
2013-06-15 08:33:00,70.0,-99.9,-100.00,NNE,14,9.0,-999.0,0,-99.99,,,-99.99,,2013-06-15 13:33:00,
2013-06-15 08:44:00,70.0,-99.9,-100.00,WNW,288,8.0,-999.0,0,-99.99,,,-99.99,,2013-06-15 13:44:00,
2013-06-15 08:53:00,70.0,-99.9,-100.00,South,173,9.0,-999.0,0,-99.99,,,-99.99,,2013-06-15 13:53:00,
2013-06-15 09:02:00,70.0,-99.9,-100.00,North,9,10.0,-999.0,0,-99.99,,,-99.99,,2013-06-15 14:02:00,
2013-06-15 09:12:00,70.0,-99.9,-100.00,North,5,8.0,-999.0,0,-99.99,,,-99.99,,2013-06-15 14:12:00,
2013-06-15 09:23:00,70.0,-99.9,-100.00,North,5,8.0,-999.0,0,-99.99,,,-99.99,,2013-06-15 14:23:00,
2013-06-15 09:34:00,69.0,-99.9,-100.00,North,11,10.0,-999.0,0,-99.99,,,-99.99,,2013-06-15 14:34:00,
2013-06-15 09:43:00,69.0,-99.9,-100.00,North,8,12.0,-999.0,0,-99.99,,,-99.99,,2013-06-15 14:43:00,
2013-06-15 09:54:00,68.0,-99.9,-100.00,NNE,15,11.0,-999.0,0,-99.99,,,-99.99,,2013-06-15 14:54:00,
2013-06-15 10:02:00,68.0,-99.9,-100.00,North,-999,17.0,-999.0,0,-99.99,,,-99.99,,2013-06-15 15:02:00,
2013-06-15 10:12:00,67.0,-99.9,-100.00,North,-999,14.0,-999.0,0,-99.99,,,-99.99,,2013-06-15 15:12:00,
2013-06-15 10:22:00,67.0,-99.9,-100.00,North,-999,14.0,-999.0,0,-99.99,,,-99.99,,2013-06-15 15:22:00,
2013-06-15 10:33:00,66.0,-99.9,-100.00,North,-999,17.0,-999.0,0,-99.99,,,-99.99,,2013-06-15 15:33:00,
2013-06-15 10:43:00,66.0,-99.9,-100.00,NW,322,5.0,-999.0,0,-99.99,,,-99.99,,2013-06-15 15:43:00,
2013-06-15 10:53:00,66.0,-99.9,-100.00,North,-999,13.0,-999.0,0,-99.99,,,-99.99,,2013-06-15 15:53:00,
2013-06-15 11:02:00,65.0,-99.9,-100.00,South,187,13.0,-999.0,0,-99.99,,,-99.99,,2013-06-15 16:02:00,
2013-06-15 11:12:00,66.0,-99.9,-100.00,North,-999,12.0,-999.0,0,-99.99,,,-99.99,,2013-06-15 16:12:00,
2013-06-15 11:22:00,65.0,-99.9,-100.00,NE,34,6.0,-999.0,0,-99.99,,,-99.99,,2013-06-15 16:22:00,
2013-06-15 11:33:00,64.0,-99.9,-100.00,SE,141,7.0,-999.0,0,-99.99,,,-99.99,,2013-06-15 16:33:00,
2013-06-15 11:43:00,63.0,-99.9,-100.00,NE,41,12.0,-999.0,0,-99.99,,,-99.99,,2013-06-15 16:43:00,
2013-06-15 11:54:00,64.0,-99.9,-100.00,NNE,27,18.0,-999.0,0,-99.99,,,-99.99,,2013-06-15 16:54:00,
2013-06-15 12:02:00,64.0,-99.9,-100.00,ENE,63,12.0,-999.0,0,-99.99,,,-99.99,,2013-06-15 17:02:00,
2013-06-15 12:12:00,65.0,-99.9,-100.00,ESE,109,24.0,-999.0,0,-99.99,,,-99.99,,2013-06-15 17:12:00,
2013-06-15 12:22:00,65.0,-99.9,-100.00,ESE,109,24.0,-999.0,0,-99.99,,,-99.99,,2013-06-15 17:22:00,
2013-06-15 12:32:00,66.0,-99.9,-100.00,NE,43,15.0,-999.0,0,-99.99,,,-99.99,,2013-06-15 17:32:00,
2013-06-15 12:43:00,69.0,-99.9,-100.00,NE,44,8.0,-999.0,0,-99.99,,,-99.99,,2013-06-15 17:43:00,
2013-06-15 12:52:00,71.0,-99.9,-100.00,NNE,26,23.0,-999.0,0,-99.99,,,-99.99,,2013-06-15 17:52:00,
2013-06-15 13:02:00,71.0,-99.9,-100.00,ENE,69,18.0,-999.0,0,-99.99,,,-99.99,,2013-06-15 18:02:00,
2013-06-15 13:12:00,72.0,-99.9,-100.00,NE,51,13.0,-999.0,0,-99.99,,,-99.99,,2013-06-15 18:12:00,
2013-06-15 13:22:00,72.0,-99.9,-100.00,NE,51,13.0,-999.0,0,-99.99,,,-99.99,,2013-06-15 18:22:00,
2013-06-15 13:33:00,73.0,-99.9,-100.00,ENE,65,7.0,-999.0,0,-99.99,,,-99.99,,2013-06-15 18:33:00,
2013-06-15 13:43:00,74.0,-99.9,-100.00,NE,44,11.0,-999.0,0,-99.99,,,-99.99,,2013-06-15 18:43:00,
2013-06-15 13:53:00,74.0,-99.9,-100.00,NNW,341,15.0,-999.0,0,-99.99,,,-99.99,,2013-06-15 18:53:00,
2013-06-15 14:02:00,74.0,-99.9,-100.00,North,-999,14.0,-999.0,0,-99.99,,,-99.99,,2013-06-15 19:02:00,
2013-06-15 14:12:00,74.0,-99.9,-100.00,North,-999,16.0,-999.0,0,-99.99,,,-99.99,,2013-06-15 19:12:00,
2013-06-15 14:22:00,74.0,-99.9,-100.00,North,-999,16.0,-999.0,0,-99.99,,,-99.99,,2013-06-15 19:22:00,
2013-06-15 14:33:00,75.0,-99.9,-100.00,NE,38,12.0,-999.0,0,-99.99,,,-99.99,,2013-06-15 19:33:00,
2013-06-15 14:43:00,76.0,-99.9,-100.00,NE,55,4.0,-999.0,0,-99.99,,,-99.99,,2013-06-15 19:43:00,
2013-06-15 14:53:00,76.0,-99.9,-100.00,North,-999,6.0,-999.0,0,-99.99,,,-99.99,,2013-06-15 19:53:00,
2013-06-15 15:02:00,76.0,-99.9,-100.00,ENE,64,6.0,-999.0,0,-99.99,,,-99.99,,2013-06-15 20:02:00,
2013-06-15 15:12:00,77.0,-99.9,-100.00,NE,34,5.0,-999.0,0,-99.99,,,-99.99,,2013-06-15 20:12:00,
2013-06-15 15:22:00,77.0,-99.9,-100.00,NE,34,5.0,-999.0,0,-99.99,,,-99.99,,2013-06-15 20:22:00,
2013-06-15 15:34:00,77.0,-99.9,-100.00,ENE,63,4.0,-999.0,0,-99.99,,,-99.99,,2013-06-15 20:34:00,
2013-06-15 15:43:00,79.0,-99.9,-100.00,NE,41,6.0,-999.0,0,-99.99,,,-99.99,,2013-06-15 20:43:00,
2013-06-15 15:53:00,78.0,-99.9,-100.00,NE,49,6.0,-999.0,0,-99.99,,,-99.99,,2013-06-15 20:53:00,
2013-06-15 16:02:00,78.0,-99.9,-100.00,NNE,12,4.0,-999.0,0,-99.99,,,-99.99,,2013-06-15 21:02:00,
2013-06-15 16:12:00,79.0,-99.9,-100.00,NNE,23,6.0,-999.0,0,-99.99,,,-99.99,,2013-06-15 21:12:00,
2013-06-15 16:22:00,79.0,-99.9,-100.00,NNE,23,6.0,-999.0,0,-99.99,,,-99.99,,2013-06-15 21:22:00,
2013-06-15 16:34:00,80.0,-99.9,-100.00,ENE,69,5.0,-999.0,0,-99.99,,,-99.99,,2013-06-15 21:34:00,
2013-06-15 16:43:00,79.0,-99.9,-100.00,NNE,18,11.0,-999.0,0,-99.99,,,-99.99,,2013-06-15 21:43:00,
2013-06-15 16:53:00,81.0,-99.9,-100.00,North,0,0.0,-999.0,0,-99.99,,,-99.99,,2013-06-15 21:53:00,
2013-06-15 17:02:00,80.0,-99.9,-100.00,NNE,31,5.0,-999.0,0,-99.99,,,-99.99,,2013-06-15 22:02:00,
2013-06-15 17:11:00,80.0,-99.9,-100.00,North,-999,9.0,-999.0,0,-99.99,,,-99.99,,2013-06-15 22:11:00,
2013-06-15 17:22:00,81.0,-99.9,-100.00,NE,42,7.0,-999.0,0,-99.99,,,-99.99,,2013-06-15 22:22:00,
2013-06-15 17:33:00,81.0,-99.9,-100.00,ENE,70,5.0,-999.0,0,-99.99,,,-99.99,,2013-06-15 22:33:00,
2013-06-15 17:43:00,81.0,-99.9,-100.00,East,91,5.0,-999.0,0,-99.99,,,-99.99,,2013-06-15 22:43:00,
2013-06-15 17:54:00,82.0,-99.9,-100.00,NE,40,2.0,-999.0,0,-99.99,,,-99.99,,2013-06-15 22:54:00,
2013-06-15 18:02:00,81.0,-99.9,-100.00,North,-999,7.0,-999.0,0,-99.99,,,-99.99,,2013-06-15 23:02:00,
2013-06-15 18:12:00,81.0,-99.9,-100.00,NNE,14,12.0,-999.0,0,-99.99,,,-99.99,,2013-06-15 23:12:00,
2013-06-15 18:22:00,81.0,-99.9,-100.00,NNE,14,12.0,-999.0,0,-99.99,,,-99.99,,2013-06-15 23:22:00,
2013-06-15 18:33:00,82.0,-99.9,-100.00,NNW,332,4.0,-999.0,0,-99.99,,,-99.99,,2013-06-15 23:33:00,
2013-06-15 18:43:00,82.0,-99.9,-100.00,NNW,339,10.0,-999.0,0,-99.99,,,-99.99,,2013-06-15 23:43:00,
2013-06-15 18:53:00,81.0,-99.9,-100.00,East,92,6.0,-999.0,0,-99.99,,,-99.99,,2013-06-15 23:53:00,
2013-06-15 19:02:00,82.0,-99.9,-100.00,NW,317,5.0,-999.0,0,-99.99,,,-99.99,,2013-06-16 00:02:00,
2013-06-15 19:12:00,82.0,-99.9,-100.00,NNW,330,7.0,-999.0,0,-99.99,,,-99.99,,2013-06-16 00:12:00,
2013-06-15 19:22:00,82.0,-99.9,-100.00,WNW,299,5.0,-999.0,0,-99.99,,,-99.99,,2013-06-16 00:22:00,
2013-06-15 19:34:00,82.0,-99.9,-100.00,WNW,299,5.0,-999.0,0,-99.99,,,-99.99,,2013-06-16 00:34:00,
2013-06-15 19:43:00,81.0,-99.9,-100.00,NNW,337,5.0,-999.0,0,-99.99,,,-99.99,,2013-06-16 00:43:00,
2013-06-15 19:53:00,82.0,-99.9,-100.00,NNW,328,8.0,-999.0,0,-99.99,,,-99.99,,2013-06-16 00:53:00,
2013-06-15 20:02:00,81.0,-99.9,-100.00,North,-999,11.0,-999.0,0,-99.99,,,-99.99,,2013-06-16 01:02:00,
2013-06-15 20:12:00,80.0,-99.9,-100.00,North,-999,9.0,-999.0,0,-99.99,,,-99.99,,2013-06-16 01:12:00,
2013-06-15 20:22:00,80.0,-99.9,-100.00,North,-999,9.0,-999.0,0,-99.99,,,-99.99,,2013-06-16 01:22:00,
2013-06-15 20:33:00,79.0,-99.9,-100.00,North,-999,9.0,-999.0,0,-99.99,,,-99.99,,2013-06-16 01:33:00,
2013-06-15 20:43:00,79.0,-99.9,-100.00,South,173,8.0,-999.0,0,-99.99,,,-99.99,,2013-06-16 01:43:00,
2013-06-15 20:53:00,78.0,-99.9,-100.00,North,7,10.0,-999.0,0,-99.99,,,-99.99,,2013-06-16 01:53:00,
2013-06-15 21:02:00,78.0,-99.9,-100.00,North,7,8.0,-999.0,0,-99.99,,,-99.99,,2013-06-16 02:02:00,
2013-06-15 21:12:00,78.0,-99.9,-100.00,East,89,5.0,-999.0,0,-99.99,,,-99.99,,2013-06-16 02:12:00,
2013-06-15 21:22:00,78.0,-99.9,-100.00,East,89,5.0,-999.0,0,-99.99,,,-99.99,,2013-06-16 02:22:00,
2013-06-15 21:34:00,76.0,-99.9,-100.00,North,-999,5.0,-999.0,0,-99.99,,,-99.99,,2013-06-16 02:34:00,
2013-06-15 21:43:00,76.0,-99.9,-100.00,NNW,338,7.0,-999.0,0,-99.99,,,-99.99,,2013-06-16 02:43:00,
2013-06-15 21:53:00,75.0,-99.9,-100.00,NW,319,6.0,-999.0,0,-99.99,,,-99.99,,2013-06-16 02:53:00,
2013-06-15 22:02:00,74.0,-99.9,-100.00,North,-999,4.0,-999.0,0,-99.99,,,-99.99,,2013-06-16 03:02:00,
2013-06-15 22:12:00,76.0,-99.9,-100.00,NNW,337,4.0,-999.0,0,-99.99,,,-99.99,,2013-06-16 03:12:00,
2013-06-15 22:22:00,76.0,-99.9,-100.00,NNW,337,4.0,-999.0,0,-99.99,,,-99.99,,2013-06-16 03:22:00,
2013-06-15 22:34:00,75.0,-99.9,-100.00,NNW,331,4.0,-999.0,0,-99.99,,,-99.99,,2013-06-16 03:34:00,
2013-06-15 22:43:00,75.0,-99.9,-100.00,NNW,335,4.0,-999.0,0,-99.99,,,-99.99,,2013-06-16 03:43:00,
2013-06-15 22:53:00,74.0,-99.9,-100.00,NNW,329,4.0,-999.0,0,-99.99,,,-99.99,,2013-06-16 03:53:00,
2013-06-15 23:02:00,73.0,-99.9,-100.00,NNW,337,3.0,-999.0,0,-99.99,,,-99.99,,2013-06-16 04:02:00,
2013-06-15 23:12:00,72.0,-99.9,-100.00,NNW,341,5.0,-999.0,0,-99.99,,,-99.99,,2013-06-16 04:12:00,
2013-06-15 23:23:00,72.0,-99.9,-100.00,NNW,341,5.0,-999.0,0,-99.99,,,-99.99,,2013-06-16 04:23:00,
2013-06-15 23:34:00,70.0,-99.9,-100.00,NW,319,7.0,-999.0,0,-99.99,,,-99.99,,2013-06-16 04:34:00,
2013-06-15 23:43:00,69.0,-99.9,-100.00,NW,319,10.0,-999.0,0,-99.99,,,-99.99,,2013-06-16 04:43:00,
2013-06-15 23:53:00,69.0,-99.9,-100.00,WNW,302,7.0,-999.0,0,-99.99,,,-99.99,,2013-06-16 04:53:00,